Regional Weather Roundup
Issued by NWS

Home | Current Version | Previous Version | Graphics & Text | Print | Product List | Glossary On
Versions: 1 2 3 4 5 6 7 8 9 10 11 12 13 14 15 16 17 18 19 20 21 22 23 24 25 26 27 28 29 30 31 32 33 34 35 36 37 38 39 40 41 42 43 44 45 46 47 48 49 50
000
ASUS43 KOAX 241810
RWRNE

WEATHER ROUNDUP FOR NEBRASKA
NATIONAL WEATHER SERVICE OMAHA NE
1200 PM CST SAT FEB 24 2018

NOTES: SATELLITE DATA IS BEING USED TO AUGMENT CLOUD COVER ABOVE
       12000 FEET.
       "FAIR" INDICATES FEW OR NO CLOUDS BELOW 12,000 FEET WITH NO
       SIGNIFICANT WEATHER AND/OR OBSTRUCTIONS TO VISIBILITY.


NEZ001>004-019>022-054>056-241900-
NEBRASKA PANHANDLE

CITY           SKY/WX    TMP DP  RH WIND       PRES   REMARKS
SCOTTSBLUFF    SUNNY     28  10  46 W26G38    29.75S WCI  13
6HR MIN TEMP:  13; 6HR MAX TEMP:  28;

ALLIANCE       SUNNY     25  14  63 W26       29.71F WCI   9
6HR MIN TEMP:  18; 6HR MAX TEMP:  25; 6HR PCP: TRACE;

CHADRON        SUNNY     19   9  65 W12       29.76F WCI   7
6HR MIN TEMP:  11; 6HR MAX TEMP:  23; 6HR PCP: TRACE;

GORDON         FAIR      27  11  52 NW20G29   29.69S WCI  13
6HR MIN TEMP:  20; 6HR MAX TEMP:  27;

KIMBALL          N/A     24  13  64 NW32G39   29.73F HAZE    WCI   6
SIDNEY         SUNNY     30   7  37 NW35G45   29.75S WCI  14
6HR MIN TEMP:  19; 6HR MAX TEMP:  31; 6HR PCP: TRACE;

$$

NEZ057>060-069>072-079>082-241900-
SOUTHWEST NEBRASKA

CITY           SKY/WX    TMP DP  RH WIND       PRES   REMARKS
NORTH PLATTE   CLOUDY    28  21  75 W12       29.76S WCI  18
6HR MIN TEMP:  20; 6HR MAX TEMP:  28; 6HR PCP:  0.06;

IMPERIAL       SUNNY     32  16  51 NW21G31   29.75F WCI  20
6HR MIN TEMP:  22; 6HR MAX TEMP:  33; 6HR PCP:  0.02;

LEXINGTON      LGT SNOW  29  25  86 SW7       29.78S WCI  22
MCCOOK         CLOUDY    28  26  92 SW7       29.78F WCI  21
6HR MIN TEMP:  23; 6HR MAX TEMP:  28; 6HR PCP:  0.04;

OGALLALA       SUNNY     32  18  55 W26       29.75S WCI  18
$$

NEZ005>010-023>029-035>040-094-241900-
NORTH CENTRAL NEBRASKA

CITY           SKY/WX    TMP DP  RH WIND       PRES   REMARKS
VALENTINE      LGT SNOW  26  21  81 SW10      29.69F WCI  16
6HR MIN TEMP:  15; 6HR MAX TEMP:  26; 6HR PCP:  0.10;

AINSWORTH      CLOUDY    23  19  86 SW12      29.70F WCI  11
BROKEN BOW     LGT SNOW  25  22  88 SW8       29.75F FOG     WCI  16
6HR MIN TEMP:  20; 6HR MAX TEMP:  25; 6HR PCP:  0.01;

O`NEILL        CLOUDY    20  20  98 S7        29.77F WCI  11
ORD            CLOUDY    22  19  89 SW9       29.78F WCI  12
6HR MIN TEMP:  16; 6HR MAX TEMP:  22; 6HR PCP:  0.01;

THEDFORD       CLOUDY    27  22  80 W12       29.71F WCI  17
$$

NEZ041-046>049-061>064-073>077-083>087-241900-
SOUTH CENTRAL NEBRASKA

CITY           SKY/WX    TMP DP  RH WIND       PRES   REMARKS
GRAND ISLAND   CLOUDY    22  20  92 CALM      29.81F
6HR MIN TEMP:  20; 6HR MAX TEMP:  22; 6HR PCP:  0.05;

AURORA         CLOUDY    22  20  91 CALM      29.81F
HASTINGS       CLOUDY    23  19  85 CALM      29.81F
6HR MIN TEMP:  20; 6HR MAX TEMP:  23; 6HR PCP:  0.02;

HEBRON         LGT SNOW  28  26  92 N7        29.85S WCI  21
HOLDREGE       CLOUDY    28  27  96 W8        29.79S WCI  19
KEARNEY        CLOUDY    28  22  78 SW6       29.80F WCI  22
YORK           MOSUNNY   23  23 100 CALM      29.82F
$$

NEZ011>018-030>034-042>045-241900-
NORTHEAST NEBRASKA

CITY           SKY/WX    TMP DP  RH WIND       PRES   REMARKS
NORFOLK        CLOUDY    23  21  92 VRB3      29.79F
6HR MIN TEMP:  20; 6HR MAX TEMP:  23; 6HR PCP:  0.09;

ALBION         CLOUDY    22  21  93 CALM      29.80F
BLAIR          CLOUDY    28  27  96 NW3       29.82F FOG
COLUMBUS       CLOUDY    28  23  81 CALM      29.84F
FREMONT        LGT SNOW  27  25  95 NW8       29.84F VSB 1   WCI  18
TEKAMAH        CLOUDY    25  23  92 N9        29.84F FOG     WCI  15
6HR MIN TEMP:  23; 6HR MAX TEMP:  26; 6HR PCP:  0.06;

WAYNE          CLOUDY    22  21  96 E5        29.82F WCI  16
$$

NEZ050>053-065>068-078-088>093-241900-
SOUTHEAST NEBRASKA

CITY           SKY/WX    TMP DP  RH WIND       PRES   REMARKS
LINCOLN        CLOUDY    27  25  92 NW9       29.85F FOG     WCI  18
6HR MIN TEMP:  23; 6HR MAX TEMP:  27; 6HR PCP:  0.07;

OMAHA EPPLEY   FRZ DRZL  28  27  96 NW6       29.84F VSB 1   WCI  22
6HR MIN TEMP:  25; 6HR MAX TEMP:  28; 6HR PCP:  0.12;

BEATRICE       CLOUDY    30  29  98 CALM      29.84R FOG
FALLS CITY     FOG       31  30  96 NW3       29.80S VSB 3/4
6HR MIN TEMP:  29; 6HR MAX TEMP:  31;

NEBRASKA CITY  CLOUDY    29  29 100 N3        29.82S FOG
PLATTSMOUTH    CLOUDY    28  28  99 CALM      29.82S FOG
$$

NEZ044-045-051>053-067-241900-
OMAHA AREA

CITY           SKY/WX    TMP DP  RH WIND       PRES   REMARKS
OMAHA EPPLEY   FRZ DRZL  28  27  96 NW6       29.84F VSB 1   WCI  22
6HR MIN TEMP:  25; 6HR MAX TEMP:  28; 6HR PCP:  0.12;

BLAIR          CLOUDY    28  27  96 NW3       29.82F FOG
FREMONT        LGT SNOW  27  25  95 NW8       29.84F VSB 1   WCI  18
MILLARD        CLOUDY    30  28  91 W3        29.84F FOG
OFFUTT AFB     FRZ DRZL  28  28 100 NW3       29.83F FOG
PLATTSMOUTH    CLOUDY    28  28  99 CALM      29.82S FOG
WAHOO          CLOUDY    27  24  89 NW3       29.84F FOG
$$




USA.gov is the U.S. government's official web portal to all federal, state and local government web resources and services.